| time (UTC) | temp F | wind direction | speed MPH | gust MPH | rain 1hr in | rain 24hr in | rain mn in | humidity % | barometer mb |
| 20260905023037 | 82 | 109 | 0.0 | 0.0 | 0.00 | 0.00 | 0.00 | 100 | 1017.4 |
| 20260905022741 | 82 | 109 | 0.0 | 0.0 | 0.00 | 0.00 | 0.00 | 100 | 1017.4 |
| 20260905022549 | 82 | 109 | 0.0 | 2.0 | 0.00 | 0.00 | 0.00 | 100 | 1017.4 |
| 20260905022241 | 82 | 109 | 0.0 | 2.0 | 0.00 | 0.00 | 0.00 | 100 | 1017.4 |
| 20260905021741 | 82 | 87 | 1.0 | 2.0 | 0.00 | 0.00 | 0.00 | 100 | 1017.4 |
| 20260905021241 | 82 | 60 | 0.0 | 2.0 | 0.00 | 0.00 | 0.00 | 100 | 1017.4 |
| 20260905020741 | 82 | 98 | 1.0 | 3.0 | 0.00 | 0.00 | 0.00 | 100 | 1017.4 |
| 20260905020241 | 82 | 104 | 2.0 | 5.0 | 0.00 | 0.00 | 0.00 | 100 | 1017.3 |
| 20260905015741 | 83 | 133 | 3.0 | 5.0 | 0.00 | 0.00 | 0.00 | 100 | 1017.3 |
| 20260905015241 | 83 | 99 | 3.0 | 3.0 | 0.00 | 0.00 | 0.00 | 100 | 1017.2 |
| 20260905014741 | 83 | 23 | 0.0 | 0.0 | 0.00 | 0.00 | 0.00 | 100 | 1017.2 |
| 20260905014241 | 83 | 23 | 0.0 | 0.0 | 0.00 | 0.00 | 0.00 | 100 | 1017.2 |
| 20260905014004 | 83 | 23 | 0.0 | 0.0 | 0.00 | 0.00 | 0.00 | 100 | 1017.2 |
| 20260905013741 | 83 | 23 | 0.0 | 0.0 | 0.00 | 0.00 | 0.00 | 100 | 1017.2 |
| 20260905013506 | 83 | 23 | 0.0 | 0.0 | 0.00 | 0.00 | 0.00 | 100 | 1017.3 |
| 20260905013241 | 83 | 23 | 0.0 | 0.0 | 0.00 | 0.00 | 0.00 | 100 | 1017.3 |
| 20260905013035 | 83 | 23 | 0.0 | 0.0 | 0.00 | 0.00 | 0.00 | 100 | 1017.2 |
| 20260905012741 | 83 | 23 | 0.0 | 0.0 | 0.00 | 0.00 | 0.00 | 100 | 1017.2 |
| 20260905012458 | 83 | 23 | 0.0 | 0.0 | 0.00 | 0.00 | 0.00 | 100 | 1017.2 |
| 20260905012241 | 83 | 23 | 0.0 | 0.0 | 0.00 | 0.00 | 0.00 | 100 | 1017.2 |
| 20260905011741 | 83 | 23 | 0.0 | 0.0 | 0.00 | 0.00 | 0.00 | 100 | 1017.2 |
| 20260905011241 | 83 | 23 | 0.0 | 0.0 | 0.00 | 0.00 | 0.00 | 100 | 1017.2 |
| 20260905011011 | 84 | 23 | 0.0 | 0.0 | 0.00 | 0.00 | 0.00 | 100 | 1017.1 |
| 20260905010741 | 84 | 23 | 0.0 | 0.0 | 0.00 | 0.00 | 0.00 | 100 | 1017.1 |
| 20260905010241 | 84 | 23 | 0.0 | 0.0 | 0.00 | 0.00 | 0.00 | 100 | 1017.0 |
| 20260905010124 | 84 | 23 | 0.0 | 0.0 | 0.00 | 0.00 | 0.00 | 100 | 1017.0 |
| 20260905005741 | 84 | 23 | 0.0 | 0.0 | 0.00 | 0.00 | 0.00 | 100 | 1017.0 |
| 20260905005241 | 84 | 23 | 0.0 | 0.0 | 0.00 | 0.00 | 0.00 | 100 | 1017.1 |
| 20260905005041 | 84 | 23 | 0.0 | 0.0 | 0.00 | 0.00 | 0.00 | 100 | 1017.2 |
| 20260905004741 | 84 | 23 | 0.0 | 0.0 | 0.00 | 0.00 | 0.00 | 100 | 1017.2 |
| 20260905004241 | 85 | 23 | 0.0 | 0.0 | 0.00 | 0.00 | 0.00 | 100 | 1017.1 |
| 20260905004112 | 85 | 23 | 0.0 | 0.0 | 0.00 | 0.00 | 0.00 | 100 | 1017.1 |
| 20260905003741 | 85 | 23 | 0.0 | 0.0 | 0.00 | 0.00 | 0.00 | 100 | 1017.1 |
| 20260905003241 | 85 | 23 | 0.0 | 0.0 | 0.00 | 0.00 | 0.00 | 100 | 1016.9 |
| 20260905003028 | 85 | 23 | 0.0 | 0.0 | 0.00 | 0.00 | 0.00 | 100 | 1016.8 |
| 20260905002741 | 85 | 23 | 0.0 | 0.0 | 0.00 | 0.00 | 0.00 | 100 | 1016.8 |
| 20260905002535 | 85 | 23 | 0.0 | 3.0 | 0.00 | 0.00 | 0.00 | 100 | 1016.7 |
| 20260905002241 | 85 | 23 | 0.0 | 3.0 | 0.00 | 0.00 | 0.00 | 100 | 1016.7 |
| 20260905001741 | 85 | 348 | 1.0 | 4.0 | 0.00 | 0.00 | 0.00 | 100 | 1016.8 |
| 20260905001241 | 86 | 7 | 0.0 | 3.0 | 0.00 | 0.00 | 0.00 | 100 | 1016.6 |
| 20260905000741 | 86 | 307 | 1.0 | 4.0 | 0.00 | 0.00 | 0.00 | 100 | 1016.7 |
| 20260905000241 | 86 | 313 | 0.0 | 3.0 | 0.00 | 0.00 | 0.00 | 100 | 1016.5 |
| 20260905000012 | 86 | 306 | 1.0 | 3.0 | 0.00 | 0.00 | 0.00 | 100 | 1016.5 |
| 20260904235741 | 86 | 306 | 1.0 | 3.0 | 0.00 | 0.00 | 0.00 | 100 | 1016.5 |
| 20260904235442 | 86 | 295 | 0.0 | 3.0 | 0.00 | 0.00 | 0.00 | 100 | 1016.5 |
| 20260904235241 | 86 | 295 | 0.0 | 3.0 | 0.00 | 0.00 | 0.00 | 100 | 1016.5 |
| 20260904234926 | 87 | 316 | 3.0 | 3.0 | 0.00 | 0.00 | 0.00 | 100 | 1016.4 |
| 20260904234741 | 87 | 316 | 3.0 | 3.0 | 0.00 | 0.00 | 0.00 | 100 | 1016.4 |
| 20260904234521 | 87 | 8 | 1.0 | 3.0 | 0.00 | 0.00 | 0.00 | 100 | 1016.5 |
| 20260904234447 | 87 | 8 | 1.0 | 3.0 | 0.00 | 0.00 | 0.00 | 100 | 1016.5 |
| 20260904234241 | 87 | 8 | 1.0 | 3.0 | 0.00 | 0.00 | 0.00 | 100 | 1016.5 |
| 20260904233941 | 87 | 279 | 0.0 | 3.0 | 0.00 | 0.00 | 0.00 | 100 | 1016.4 |
| 20260904233741 | 87 | 279 | 0.0 | 3.0 | 0.00 | 0.00 | 0.00 | 100 | 1016.4 |
| 20260904233337 | 88 | 279 | 0.0 | 3.0 | 0.00 | 0.00 | 0.00 | 100 | 1016.3 |
| 20260904233242 | 88 | 279 | 0.0 | 3.0 | 0.00 | 0.00 | 0.00 | 100 | 1016.3 |
| 20260904232941 | 88 | 265 | 0.0 | 3.0 | 0.00 | 0.00 | 0.00 | 100 | 1016.2 |
| 20260904232742 | 88 | 265 | 0.0 | 3.0 | 0.00 | 0.00 | 0.00 | 100 | 1016.2 |
| 20260904232612 | 88 | 264 | 0.0 | 4.0 | 0.00 | 0.00 | 0.00 | 100 | 1016.1 |
| 20260904232536 | 88 | 264 | 0.0 | 4.0 | 0.00 | 0.00 | 0.00 | 100 | 1016.1 |
| 20260904232242 | 88 | 264 | 0.0 | 4.0 | 0.00 | 0.00 | 0.00 | 100 | 1016.1 |
| 20260904232024 | 88 | 274 | 3.0 | 5.0 | 0.00 | 0.00 | 0.00 | 100 | 1016.1 |
| 20260904231742 | 88 | 274 | 3.0 | 5.0 | 0.00 | 0.00 | 0.00 | 100 | 1016.1 |
| 20260904231522 | 89 | 260 | 4.0 | 5.0 | 0.00 | 0.00 | 0.00 | 100 | 1016.0 |
| 20260904231242 | 89 | 260 | 4.0 | 5.0 | 0.00 | 0.00 | 0.00 | 100 | 1016.0 |
| 20260904231050 | 89 | 279 | 0.0 | 9.0 | 0.00 | 0.00 | 0.00 | 100 | 1016.0 |
| 20260904230742 | 89 | 279 | 0.0 | 9.0 | 0.00 | 0.00 | 0.00 | 100 | 1016.0 |
| 20260904230242 | 89 | 293 | 0.0 | 7.0 | 0.00 | 0.00 | 0.00 | 100 | 1015.9 |
| 20260904230021 | 89 | 265 | 5.0 | 9.0 | 0.00 | 0.00 | 0.00 | 100 | 1015.8 |
| 20260904225742 | 89 | 265 | 5.0 | 9.0 | 0.00 | 0.00 | 0.00 | 100 | 1015.8 |
| 20260904225242 | 90 | 274 | 2.0 | 7.0 | 0.00 | 0.00 | 0.00 | 100 | 1015.9 |
| 20260904224742 | 90 | 265 | 4.0 | 6.0 | 0.00 | 0.00 | 0.00 | 100 | 1015.8 |
| 20260904224242 | 90 | 220 | 3.0 | 9.0 | 0.00 | 0.00 | 0.00 | 100 | 1015.8 |
| 20260904224031 | 90 | 254 | 3.0 | 9.0 | 0.00 | 0.00 | 0.00 | 100 | 1015.7 |
| 20260904223742 | 90 | 254 | 3.0 | 9.0 | 0.00 | 0.00 | 0.00 | 100 | 1015.7 |
| 20260904223242 | 90 | 286 | 0.0 | 9.0 | 0.00 | 0.00 | 0.00 | 100 | 1015.7 |
| 20260904222742 | 90 | 270 | 4.0 | 9.0 | 0.00 | 0.00 | 0.00 | 100 | 1015.7 |
| 20260904222716 | 90 | 241 | 7.0 | 8.0 | 0.00 | 0.00 | 0.00 | 100 | 1015.7 |
| 20260904222242 | 90 | 241 | 7.0 | 8.0 | 0.00 | 0.00 | 0.00 | 100 | 1015.7 |
| 20260904221742 | 90 | 239 | 0.0 | 10.0 | 0.00 | 0.00 | 0.00 | 100 | 1015.7 |
| 20260904221242 | 90 | 268 | 4.0 | 9.0 | 0.00 | 0.00 | 0.00 | 100 | 1015.7 |
| 20260904220742 | 91 | 288 | 7.0 | 8.0 | 0.00 | 0.00 | 0.00 | 100 | 1015.6 |
| 20260904220242 | 91 | 265 | 5.0 | 9.0 | 0.00 | 0.00 | 0.00 | 100 | 1015.5 |
| 20260904215818 | 91 | 254 | 7.0 | 10.0 | 0.00 | 0.00 | 0.00 | 100 | 1015.5 |
| 20260904215742 | 91 | 254 | 7.0 | 10.0 | 0.00 | 0.00 | 0.00 | 100 | 1015.5 |
| 20260904215614 | 92 | 268 | 5.0 | 10.0 | 0.00 | 0.00 | 0.00 | 100 | 1015.6 |
| 20260904215258 | 92 | 254 | 9.0 | 13.0 | 0.00 | 0.00 | 0.00 | 100 | 1015.5 |
| 20260904215242 | 92 | 268 | 5.0 | 10.0 | 0.00 | 0.00 | 0.00 | 100 | 1015.6 |
| 20260904214742 | 92 | 254 | 9.0 | 13.0 | 0.00 | 0.00 | 0.00 | 100 | 1015.5 |
| 20260904214242 | 92 | 288 | 1.0 | 9.0 | 0.00 | 0.00 | 0.00 | 100 | 1015.6 |
| 20260904213742 | 93 | 292 | 2.0 | 9.0 | 0.00 | 0.00 | 0.00 | 100 | 1015.4 |
| 20260904213242 | 93 | 264 | 6.0 | 12.0 | 0.00 | 0.00 | 0.00 | 100 | 1015.5 |
| 20260904213112 | 94 | 270 | 7.0 | 13.0 | 0.00 | 0.00 | 0.00 | 100 | 1015.7 |
| 20260904212742 | 94 | 270 | 7.0 | 13.0 | 0.00 | 0.00 | 0.00 | 100 | 1015.7 |
| 20260904212242 | 94 | 236 | 3.0 | 9.0 | 0.00 | 0.00 | 0.00 | 100 | 1015.6 |
| 20260904212104 | 95 | 244 | 3.0 | 10.0 | 0.00 | 0.00 | 0.00 | 100 | 1015.5 |
| 20260904212032 | 95 | 244 | 3.0 | 10.0 | 0.00 | 0.00 | 0.00 | 100 | 1015.5 |
| 20260904211742 | 95 | 244 | 3.0 | 10.0 | 0.00 | 0.00 | 0.00 | 100 | 1015.5 |
| 20260904211242 | 94 | 243 | 8.0 | 11.0 | 0.00 | 0.00 | 0.00 | 100 | 1015.4 |
| 20260904210946 | 94 | 265 | 8.0 | 14.0 | 0.00 | 0.00 | 0.00 | 100 | 1015.3 |
| 20260904210742 | 94 | 265 | 8.0 | 14.0 | 0.00 | 0.00 | 0.00 | 100 | 1015.3 |
| 20260904210553 | 94 | 289 | 5.0 | 9.0 | 0.00 | 0.00 | 0.00 | 100 | 1015.2 |
| 20260904210243 | 94 | 289 | 5.0 | 9.0 | 0.00 | 0.00 | 0.00 | 100 | 1015.2 |
| 20260904210004 | 93 | 277 | 3.0 | 12.0 | 0.00 | 0.00 | 0.00 | 100 | 1015.2 |
| 20260904205742 | 93 | 277 | 3.0 | 12.0 | 0.00 | 0.00 | 0.00 | 100 | 1015.2 |
| 20260904205242 | 93 | 246 | 4.0 | 14.0 | 0.00 | 0.00 | 0.00 | 100 | 1015.2 |
| 20260904205037 | 93 | 272 | 8.0 | 10.0 | 0.00 | 0.00 | 0.00 | 100 | 1015.2 |
| 20260904204742 | 93 | 272 | 8.0 | 10.0 | 0.00 | 0.00 | 0.00 | 100 | 1015.2 |
| 20260904204242 | 93 | 286 | 7.0 | 12.0 | 0.00 | 0.00 | 0.00 | 100 | 1015.3 |
| 20260904203742 | 94 | 265 | 7.0 | 9.0 | 0.00 | 0.00 | 0.00 | 100 | 1015.4 |
| 20260904203443 | 93 | 254 | 9.0 | 9.0 | 0.00 | 0.00 | 0.00 | 100 | 1015.4 |
| 20260904203242 | 93 | 254 | 9.0 | 9.0 | 0.00 | 0.00 | 0.00 | 100 | 1015.4 |
| 20260904202742 | 93 | 237 | 5.0 | 10.0 | 0.00 | 0.00 | 0.00 | 100 | 1015.6 |
| 20260904202244 | 94 | 292 | 1.0 | 8.0 | 0.00 | 0.00 | 0.00 | 100 | 1015.7 |
| 20260904202008 | 95 | 240 | 5.0 | 13.0 | 0.00 | 0.00 | 0.00 | 100 | 1015.8 |
| 20260904201742 | 95 | 240 | 5.0 | 13.0 | 0.00 | 0.00 | 0.00 | 100 | 1015.8 |
| 20260904201242 | 95 | 253 | 9.0 | 11.0 | 0.00 | 0.00 | 0.00 | 100 | 1015.8 |
| 20260904200742 | 96 | 233 | 5.0 | 8.0 | 0.00 | 0.00 | 0.00 | 100 | 1015.7 |
| 20260904200244 | 95 | 237 | 5.0 | 12.0 | 0.00 | 0.00 | 0.00 | 100 | 1015.8 |
| 20260904200114 | 95 | 255 | 8.0 | 8.0 | 0.00 | 0.00 | 0.00 | 100 | 1015.7 |
| 20260904195742 | 95 | 255 | 8.0 | 8.0 | 0.00 | 0.00 | 0.00 | 100 | 1015.7 |
| 20260904195537 | 94 | 270 | 6.0 | 10.0 | 0.00 | 0.00 | 0.00 | 100 | 1015.8 |
| 20260904195242 | 94 | 270 | 6.0 | 10.0 | 0.00 | 0.00 | 0.00 | 100 | 1015.8 |
| 20260904194742 | 94 | 272 | 8.0 | 9.0 | 0.00 | 0.00 | 0.00 | 100 | 1015.8 |
| 20260904194242 | 95 | 260 | 3.0 | 10.0 | 0.00 | 0.00 | 0.00 | 100 | 1015.7 |
| 20260904193743 | 95 | 253 | 4.0 | 10.0 | 0.00 | 0.00 | 0.00 | 100 | 1016.0 |
| 20260904193243 | 96 | 243 | 5.0 | 9.0 | 0.00 | 0.00 | 0.00 | 100 | 1016.0 |
| 20260904192743 | 96 | 227 | 6.0 | 11.0 | 0.00 | 0.00 | 0.00 | 100 | 1016.0 |
| 20260904192447 | 97 | 241 | 4.0 | 9.0 | 0.00 | 0.00 | 0.00 | 100 | 1016.1 |
| 20260904192243 | 97 | 241 | 4.0 | 9.0 | 0.00 | 0.00 | 0.00 | 100 | 1016.1 |
| 20260904191911 | 97 | 250 | 7.0 | 9.0 | 0.00 | 0.00 | 0.00 | 100 | 1016.3 |
| 20260904191743 | 97 | 250 | 7.0 | 9.0 | 0.00 | 0.00 | 0.00 | 100 | 1016.3 |
| 20260904191243 | 98 | 279 | 6.0 | 9.0 | 0.00 | 0.00 | 0.00 | 100 | 1016.4 |
| 20260904190743 | 98 | 246 | 6.0 | 11.0 | 0.00 | 0.00 | 0.00 | 100 | 1016.4 |
| 20260904190533 | 98 | 243 | 8.0 | 13.0 | 0.00 | 0.01 | 0.00 | 100 | 1016.4 |
| 20260904190243 | 98 | 243 | 8.0 | 13.0 | 0.00 | 0.01 | 0.00 | 100 | 1016.4 |
| 20260904185943 | 99 | 241 | 4.0 | 13.0 | 0.00 | 0.01 | 0.00 | 100 | 1016.4 |
| 20260904185743 | 99 | 241 | 4.0 | 13.0 | 0.00 | 0.01 | 0.00 | 100 | 1016.4 |
| 20260904185243 | 99 | 215 | 8.0 | 13.0 | 0.00 | 0.01 | 0.00 | 100 | 1016.5 |
| 20260904184953 | 100 | 260 | 7.0 | 11.0 | 0.00 | 0.01 | 0.00 | 100 | 1016.6 |
| 20260904184743 | 100 | 260 | 7.0 | 11.0 | 0.00 | 0.01 | 0.00 | 100 | 1016.6 |
| 20260904184613 | 98 | 229 | 6.0 | 16.0 | 0.00 | 0.01 | 0.00 | 100 | 1016.6 |
| 20260904184243 | 98 | 229 | 6.0 | 16.0 | 0.00 | 0.01 | 0.00 | 100 | 1016.6 |
| 20260904183909 | 98 | 161 | 4.0 | 10.0 | 0.00 | 0.01 | 0.00 | 100 | 1016.6 |
| 20260904183743 | 98 | 161 | 4.0 | 10.0 | 0.00 | 0.01 | 0.00 | 100 | 1016.6 |
| 20260904183501 | 98 | 236 | 3.0 | 9.0 | 0.00 | 0.01 | 0.00 | 100 | 1016.6 |
| 20260904183243 | 98 | 236 | 3.0 | 9.0 | 0.00 | 0.01 | 0.00 | 100 | 1016.6 |
| 20260904182942 | 99 | 217 | 5.0 | 11.0 | 0.00 | 0.01 | 0.00 | 100 | 1016.6 |
| 20260904182743 | 99 | 217 | 5.0 | 11.0 | 0.00 | 0.01 | 0.00 | 100 | 1016.6 |
| 20260904182442 | 100 | 264 | 9.0 | 10.0 | 0.00 | 0.01 | 0.00 | 100 | 1016.6 |
| 20260904182243 | 100 | 264 | 9.0 | 10.0 | 0.00 | 0.01 | 0.00 | 100 | 1016.6 |
| 20260904181946 | 103 | 241 | 3.0 | 7.0 | 0.00 | 0.01 | 0.00 | 100 | 1016.7 |
| 20260904181743 | 103 | 241 | 3.0 | 7.0 | 0.00 | 0.01 | 0.00 | 100 | 1016.7 |
| 20260904181243 | 103 | 223 | 6.0 | 7.0 | 0.00 | 0.01 | 0.00 | 100 | 1016.7 |
| 20260904180944 | 102 | 227 | 5.0 | 11.0 | 0.00 | 0.01 | 0.00 | 100 | 1016.9 |
| 20260904180743 | 102 | 227 | 5.0 | 11.0 | 0.00 | 0.01 | 0.00 | 100 | 1016.9 |
| 20260904180549 | 101 | 239 | 6.0 | 10.0 | 0.00 | 0.06 | 0.00 | 100 | 1017.0 |
| 20260904180517 | 101 | 239 | 6.0 | 10.0 | 0.00 | 0.06 | 0.00 | 100 | 1017.0 |
| 20260904180244 | 101 | 239 | 6.0 | 10.0 | 0.00 | 0.06 | 0.00 | 100 | 1017.0 |
| 20260904180032 | 104 | 208 | 7.0 | 13.0 | 0.00 | 0.06 | 0.00 | 100 | 1017.1 |
| 20260904175743 | 104 | 208 | 7.0 | 13.0 | 0.00 | 0.06 | 0.00 | 100 | 1017.1 |
| 20260904175243 | 108 | 236 | 11.0 | 13.0 | 0.00 | 0.06 | 0.00 | 100 | 1017.1 |
| 20260904174743 | 104 | 240 | 5.0 | 11.0 | 0.00 | 0.06 | 0.00 | 100 | 1017.0 |
| 20260904174603 | 104 | 271 | 6.0 | 10.0 | 0.00 | 0.06 | 0.00 | 100 | 1017.0 |
| 20260904174243 | 104 | 271 | 6.0 | 10.0 | 0.00 | 0.06 | 0.00 | 100 | 1017.0 |
| 20260904174117 | 109 | 258 | 4.0 | 10.0 | 0.00 | 0.06 | 0.00 | 100 | 1017.1 |
| 20260904173743 | 109 | 258 | 4.0 | 10.0 | 0.00 | 0.06 | 0.00 | 100 | 1017.1 |
| 20260904173243 | 121 | 222 | 7.0 | 10.0 | 0.00 | 0.06 | 0.00 | 100 | 1017.1 |
| 20260904173119 | 111 | 307 | 2.0 | 11.0 | 0.00 | 0.06 | 0.00 | 100 | 1017.1 |
| 20260904172743 | 111 | 307 | 2.0 | 11.0 | 0.00 | 0.06 | 0.00 | 100 | 1017.1 |
| 20260904172652 | 106 | 216 | 4.0 | 12.0 | 0.00 | 0.06 | 0.00 | 100 | 1017.1 |
| 20260904172243 | 106 | 216 | 4.0 | 12.0 | 0.00 | 0.06 | 0.00 | 100 | 1017.1 |
| 20260904172152 | 116 | 233 | 11.0 | 14.0 | 0.00 | 0.06 | 0.00 | 100 | 1017.2 |
| 20260904171743 | 116 | 233 | 11.0 | 14.0 | 0.00 | 0.06 | 0.00 | 100 | 1017.2 |
| 20260904171243 | 123 | 222 | 7.0 | 13.0 | 0.00 | 0.06 | 0.00 | 100 | 1017.3 |
| 20260904171152 | 124 | 251 | 9.0 | 11.0 | 0.00 | 0.06 | 0.00 | 100 | 1017.3 |
| 20260904170743 | 124 | 251 | 9.0 | 11.0 | 0.00 | 0.06 | 0.00 | 100 | 1017.3 |
| 20260904170616 | 119 | 206 | 6.0 | 9.0 | 0.00 | 0.06 | 0.00 | 100 | 1017.4 |
| 20260904170243 | 119 | 206 | 6.0 | 9.0 | 0.00 | 0.06 | 0.00 | 100 | 1017.4 |
| 20260904165743 | 118 | 244 | 4.0 | 11.0 | 0.00 | 0.06 | 0.00 | 100 | 1017.4 |
| 20260904165600 | 123 | 234 | 3.0 | 10.0 | 0.00 | 0.06 | 0.00 | 100 | 1017.4 |
| 20260904165243 | 123 | 234 | 3.0 | 10.0 | 0.00 | 0.06 | 0.00 | 100 | 1017.4 |
| 20260904165022 | 120 | 227 | 4.0 | 11.0 | 0.00 | 0.06 | 0.00 | 100 | 1017.4 |
| 20260904164743 | 120 | 227 | 4.0 | 11.0 | 0.00 | 0.06 | 0.00 | 100 | 1017.4 |
| 20260904164359 | 114 | 213 | 10.0 | 10.0 | 0.00 | 0.06 | 0.00 | 100 | 1017.4 |
| 20260904164243 | 114 | 213 | 10.0 | 10.0 | 0.00 | 0.06 | 0.00 | 100 | 1017.4 |
| 20260904163743 | 119 | 223 | 9.0 | 11.0 | 0.00 | 0.06 | 0.00 | 100 | 1017.5 |
| 20260904163717 | 109 | 196 | 7.0 | 9.0 | 0.00 | 0.06 | 0.00 | 100 | 1017.6 |
| 20260904163243 | 109 | 196 | 7.0 | 9.0 | 0.00 | 0.06 | 0.00 | 100 | 1017.6 |
| 20260904163031 | 118 | 227 | 6.0 | 9.0 | 0.00 | 0.06 | 0.00 | 100 | 1017.7 |
| 20260904162743 | 118 | 227 | 6.0 | 9.0 | 0.00 | 0.06 | 0.00 | 100 | 1017.7 |
| 20260904162537 | 118 | 151 | 4.0 | 11.0 | 0.00 | 0.06 | 0.00 | 100 | 1017.8 |
| 20260904162243 | 118 | 151 | 4.0 | 11.0 | 0.00 | 0.06 | 0.00 | 100 | 1017.8 |
| 20260904161743 | 117 | 232 | 8.0 | 15.0 | 0.00 | 0.06 | 0.00 | 100 | 1017.8 |
| 20260904161613 | 116 | 219 | 3.0 | 13.0 | 0.00 | 0.06 | 0.00 | 100 | 1017.8 |
| 20260904161243 | 116 | 219 | 3.0 | 13.0 | 0.00 | 0.06 | 0.00 | 100 | 1017.8 |
| 20260904160743 | 116 | 195 | 7.0 | 9.0 | 0.00 | 0.06 | 0.00 | 100 | 1017.8 |
| 20260904160243 | 111 | 195 | 5.0 | 10.0 | 0.00 | 0.06 | 0.00 | 100 | 1017.9 |
| 20260904160116 | 112 | 243 | 7.0 | 11.0 | 0.00 | 0.06 | 0.00 | 100 | 1017.8 |
| 20260904155743 | 112 | 243 | 7.0 | 11.0 | 0.00 | 0.06 | 0.00 | 100 | 1017.8 |
| 20260904155602 | 115 | 248 | 7.0 | 11.0 | 0.00 | 0.06 | 0.00 | 100 | 1017.9 |
| 20260904155243 | 115 | 248 | 7.0 | 11.0 | 0.00 | 0.06 | 0.00 | 100 | 1017.9 |
| 20260904155058 | 112 | 192 | 5.0 | 12.0 | 0.00 | 0.06 | 0.00 | 100 | 1017.9 |
| 20260904154743 | 112 | 192 | 5.0 | 12.0 | 0.00 | 0.06 | 0.00 | 100 | 1017.9 |
| 20260904154627 | 105 | 215 | 8.0 | 11.0 | 0.00 | 0.06 | 0.00 | 100 | 1017.9 |
| 20260904154244 | 105 | 215 | 8.0 | 11.0 | 0.00 | 0.06 | 0.00 | 100 | 1017.9 |
| 20260904154031 | 102 | 208 | 8.0 | 13.0 | 0.00 | 0.06 | 0.00 | 100 | 1017.9 |
| 20260904153744 | 102 | 208 | 8.0 | 13.0 | 0.00 | 0.06 | 0.00 | 100 | 1017.9 |
| 20260904153244 | 109 | 182 | 7.0 | 9.0 | 0.00 | 0.06 | 0.00 | 100 | 1017.9 |
| 20260904152744 | 104 | 261 | 2.0 | 9.0 | 0.00 | 0.06 | 0.00 | 100 | 1017.9 |
| 20260904152544 | 100 | 234 | 6.0 | 8.0 | 0.00 | 0.06 | 0.00 | 100 | 1017.8 |
| 20260904152244 | 100 | 234 | 6.0 | 8.0 | 0.00 | 0.06 | 0.00 | 100 | 1017.8 |
| 20260904152130 | 100 | 208 | 7.0 | 9.0 | 0.00 | 0.06 | 0.00 | 100 | 1017.9 |
| 20260904151744 | 100 | 208 | 7.0 | 9.0 | 0.00 | 0.06 | 0.00 | 100 | 1017.9 |
| 20260904151537 | 103 | 244 | 7.0 | 9.0 | 0.00 | 0.06 | 0.00 | 100 | 1017.8 |
| 20260904151244 | 103 | 244 | 7.0 | 9.0 | 0.00 | 0.06 | 0.00 | 100 | 1017.8 |
| 20260904151015 | 100 | 229 | 7.0 | 8.0 | 0.00 | 0.06 | 0.00 | 100 | 1017.7 |
| 20260904150744 | 100 | 229 | 7.0 | 8.0 | 0.00 | 0.06 | 0.00 | 100 | 1017.7 |
| 20260904150556 | 99 | 187 | 5.0 | 8.0 | 0.00 | 0.06 | 0.00 | 100 | 1017.7 |
| 20260904150244 | 99 | 187 | 5.0 | 8.0 | 0.00 | 0.06 | 0.00 | 100 | 1017.7 |
| 20260904150034 | 98 | 217 | 6.0 | 8.0 | 0.00 | 0.06 | 0.00 | 100 | 1017.6 |
| 20260904145744 | 98 | 217 | 6.0 | 8.0 | 0.00 | 0.06 | 0.00 | 100 | 1017.6 |
| 20260904145556 | 96 | 203 | 6.0 | 8.0 | 0.00 | 0.06 | 0.00 | 100 | 1017.4 |
| 20260904145503 | 96 | 203 | 6.0 | 8.0 | 0.00 | 0.06 | 0.00 | 100 | 1017.4 |
| 20260904145244 | 96 | 203 | 6.0 | 8.0 | 0.00 | 0.06 | 0.00 | 100 | 1017.4 |
| 20260904144744 | 97 | 202 | 5.0 | 9.0 | 0.00 | 0.06 | 0.00 | 100 | 1017.5 |
| 20260904144559 | 96 | 232 | 3.0 | 10.0 | 0.00 | 0.06 | 0.00 | 100 | 1017.5 |
| 20260904144244 | 96 | 232 | 3.0 | 10.0 | 0.00 | 0.06 | 0.00 | 100 | 1017.5 |
| 20260904143956 | 95 | 213 | 8.0 | 9.0 | 0.00 | 0.06 | 0.00 | 100 | 1017.5 |
| 20260904143744 | 95 | 213 | 8.0 | 9.0 | 0.00 | 0.06 | 0.00 | 100 | 1017.5 |
| 20260904143244 | 95 | 210 | 6.0 | 8.0 | 0.00 | 0.06 | 0.00 | 100 | 1017.5 |
| 20260904143030 | 95 | 168 | 7.0 | 9.0 | 0.00 | 0.06 | 0.00 | 100 | 1017.5 |
| 20260904142744 | 95 | 168 | 7.0 | 9.0 | 0.00 | 0.06 | 0.00 | 100 | 1017.5 |
| 20260904142611 | 97 | 125 | 4.0 | 8.0 | 0.00 | 0.06 | 0.00 | 100 | 1017.4 |
| 20260904142244 | 97 | 125 | 4.0 | 8.0 | 0.00 | 0.06 | 0.00 | 100 | 1017.4 |
| 20260904142000 | 98 | 144 | 2.0 | 6.0 | 0.00 | 0.06 | 0.00 | 100 | 1017.3 |
| 20260904141744 | 98 | 144 | 2.0 | 6.0 | 0.00 | 0.06 | 0.00 | 100 | 1017.3 |
| 20260904141615 | 99 | 216 | 3.0 | 7.0 | 0.00 | 0.06 | 0.00 | 100 | 1017.3 |
| 20260904141244 | 99 | 216 | 3.0 | 7.0 | 0.00 | 0.06 | 0.00 | 100 | 1017.3 |
| 20260904141122 | 99 | 163 | 2.0 | 7.0 | 0.00 | 0.06 | 0.00 | 100 | 1017.4 |
| 20260904140744 | 99 | 163 | 2.0 | 7.0 | 0.00 | 0.06 | 0.00 | 100 | 1017.4 |
| 20260904140244 | 100 | 196 | 5.0 | 7.0 | 0.00 | 0.06 | 0.00 | 100 | 1017.3 |
| 20260904135918 | 100 | 189 | 5.0 | 9.0 | 0.00 | 0.06 | 0.00 | 100 | 1017.4 |
| 20260904135744 | 100 | 189 | 5.0 | 9.0 | 0.00 | 0.06 | 0.00 | 100 | 1017.4 |
| 20260904135446 | 100 | 233 | 6.0 | 7.0 | 0.00 | 0.06 | 0.00 | 100 | 1017.3 |
| 20260904135244 | 100 | 233 | 6.0 | 7.0 | 0.00 | 0.06 | 0.00 | 100 | 1017.3 |
| 20260904135000 | 100 | 201 | 5.0 | 6.0 | 0.00 | 0.06 | 0.00 | 100 | 1017.2 |
| 20260904134744 | 100 | 201 | 5.0 | 6.0 | 0.00 | 0.06 | 0.00 | 100 | 1017.2 |
| 20260904134244 | 100 | 222 | 4.0 | 6.0 | 0.00 | 0.06 | 0.00 | 100 | 1017.1 |
| 20260904134007 | 100 | 118 | 1.0 | 7.0 | 0.00 | 0.06 | 0.00 | 100 | 1017.1 |
| 20260904133744 | 100 | 118 | 1.0 | 7.0 | 0.00 | 0.06 | 0.00 | 100 | 1017.1 |
| 20260904133613 | 100 | 187 | 3.0 | 5.0 | 0.00 | 0.06 | 0.00 | 100 | 1017.2 |
| 20260904133244 | 100 | 187 | 3.0 | 5.0 | 0.00 | 0.06 | 0.00 | 100 | 1017.2 |
| 20260904132744 | 98 | 253 | 2.0 | 8.0 | 0.00 | 0.06 | 0.00 | 100 | 1017.2 |
| 20260904132244 | 97 | 174 | 4.0 | 7.0 | 0.00 | 0.06 | 0.00 | 100 | 1017.1 |
| 20260904131856 | 96 | 191 | 3.0 | 6.0 | 0.00 | 0.06 | 0.00 | 100 | 1017.0 |
| 20260904131744 | 96 | 191 | 3.0 | 6.0 | 0.00 | 0.06 | 0.00 | 100 | 1017.0 |
| 20260904131359 | 96 | 246 | 2.0 | 6.0 | 0.00 | 0.06 | 0.00 | 100 | 1016.9 |
| 20260904131244 | 96 | 246 | 2.0 | 6.0 | 0.00 | 0.06 | 0.00 | 100 | 1016.9 |
| 20260904130744 | 95 | 147 | 0.0 | 5.0 | 0.00 | 0.06 | 0.00 | 100 | 1016.9 |
| 20260904130244 | 93 | 156 | 3.0 | 7.0 | 0.00 | 0.06 | 0.00 | 100 | 1016.9 |
| 20260904125744 | 92 | 167 | 3.0 | 10.0 | 0.00 | 0.06 | 0.00 | 100 | 1016.9 |
| 20260904125244 | 91 | 188 | 4.0 | 5.0 | 0.00 | 0.06 | 0.00 | 100 | 1016.8 |
| 20260904124744 | 90 | 195 | 1.0 | 5.0 | 0.00 | 0.06 | 0.00 | 100 | 1016.8 |
| 20260904124522 | 87 | 172 | 3.0 | 6.0 | 0.00 | 0.06 | 0.00 | 100 | 1016.8 |
| 20260904124244 | 87 | 172 | 3.0 | 6.0 | 0.00 | 0.06 | 0.00 | 100 | 1016.8 |
| 20260904123925 | 83 | 213 | 5.0 | 5.0 | 0.00 | 0.06 | 0.00 | 100 | 1016.7 |
| 20260904123744 | 83 | 213 | 5.0 | 5.0 | 0.00 | 0.06 | 0.00 | 100 | 1016.7 |
| 20260904123414 | 82 | 174 | 3.0 | 3.0 | 0.00 | 0.06 | 0.00 | 100 | 1016.6 |
| 20260904123244 | 82 | 174 | 3.0 | 3.0 | 0.00 | 0.06 | 0.00 | 100 | 1016.6 |
| 20260904122922 | 80 | 191 | 2.0 | 5.0 | 0.00 | 0.06 | 0.00 | 100 | 1016.6 |
| 20260904122744 | 80 | 191 | 2.0 | 5.0 | 0.00 | 0.06 | 0.00 | 100 | 1016.6 |
| 20260904122244 | 80 | 135 | 4.0 | 4.0 | 0.00 | 0.06 | 0.00 | 100 | 1016.6 |
| 20260904121932 | 80 | 135 | 0.0 | 3.0 | 0.00 | 0.06 | 0.00 | 100 | 1016.7 |
| 20260904121744 | 80 | 135 | 0.0 | 3.0 | 0.00 | 0.06 | 0.00 | 100 | 1016.7 |
| 20260904121244 | 80 | 140 | 2.0 | 3.0 | 0.00 | 0.06 | 0.00 | 100 | 1016.7 |
| 20260904120744 | 79 | 136 | 0.0 | 0.0 | 0.00 | 0.06 | 0.00 | 100 | 1016.6 |
| 20260904120444 | 78 | 136 | 0.0 | 1.0 | 0.00 | 0.07 | 0.00 | 100 | 1016.5 |
| 20260904120244 | 78 | 136 | 0.0 | 1.0 | 0.00 | 0.07 | 0.00 | 100 | 1016.5 |
| 20260904115744 | 77 | 116 | 0.0 | 0.0 | 0.00 | 0.07 | 0.00 | 100 | 1016.4 |
| 20260904115245 | 77 | 116 | 0.0 | 0.0 | 0.00 | 0.07 | 0.00 | 100 | 1016.4 |
| 20260904115023 | 77 | 116 | 0.0 | 0.0 | 0.00 | 0.07 | 0.00 | 100 | 1016.3 |
| 20260904114745 | 77 | 116 | 0.0 | 0.0 | 0.00 | 0.07 | 0.00 | 100 | 1016.3 |
| 20260904114245 | 77 | 116 | 0.0 | 0.0 | 0.00 | 0.07 | 0.00 | 100 | 1016.4 |
| 20260904114013 | 77 | 116 | 0.0 | 0.0 | 0.00 | 0.07 | 0.00 | 100 | 1016.3 |
| 20260904113745 | 77 | 116 | 0.0 | 0.0 | 0.00 | 0.07 | 0.00 | 100 | 1016.3 |
| 20260904113415 | 77 | 116 | 0.0 | 0.0 | 0.00 | 0.07 | 0.00 | 100 | 1016.3 |
| 20260904113245 | 77 | 116 | 0.0 | 0.0 | 0.00 | 0.07 | 0.00 | 100 | 1016.3 |
| 20260904112953 | 77 | 116 | 0.0 | 0.0 | 0.00 | 0.07 | 0.00 | 100 | 1016.3 |
| 20260904112745 | 77 | 116 | 0.0 | 0.0 | 0.00 | 0.07 | 0.00 | 100 | 1016.3 |
| 20260904112245 | 76 | 116 | 0.0 | 0.0 | 0.00 | 0.07 | 0.00 | 100 | 1016.2 |
| 20260904111745 | 76 | 116 | 0.0 | 0.0 | 0.00 | 0.07 | 0.00 | 100 | 1016.1 |
| 20260904111245 | 76 | 116 | 0.0 | 0.0 | 0.00 | 0.07 | 0.00 | 100 | 1016.2 |
| 20260904110745 | 76 | 116 | 0.0 | 1.0 | 0.00 | 0.07 | 0.00 | 100 | 1016.1 |
| 20260904110245 | 76 | 130 | 0.0 | 0.0 | 0.00 | 0.07 | 0.00 | 100 | 1016.0 |
| 20260904105745 | 76 | 130 | 0.0 | 0.0 | 0.00 | 0.07 | 0.00 | 100 | 1016.0 |
| 20260904105245 | 76 | 130 | 0.0 | 0.0 | 0.00 | 0.07 | 0.00 | 100 | 1016.0 |
| 20260904104745 | 76 | 130 | 0.0 | 0.0 | 0.00 | 0.07 | 0.00 | 100 | 1016.0 |
| 20260904104245 | 76 | 130 | 0.0 | 0.0 | 0.00 | 0.07 | 0.00 | 100 | 1016.0 |
| 20260904103745 | 76 | 130 | 0.0 | 0.0 | 0.00 | 0.07 | 0.00 | 100 | 1015.9 |
| 20260904103245 | 76 | 130 | 0.0 | 0.0 | 0.00 | 0.07 | 0.00 | 100 | 1016.0 |
| 20260904102745 | 76 | 130 | 0.0 | 0.0 | 0.00 | 0.07 | 0.00 | 100 | 1015.9 |
| 20260904102505 | 76 | 130 | 0.0 | 1.0 | 0.00 | 0.07 | 0.00 | 100 | 1015.9 |
| 20260904102245 | 76 | 130 | 0.0 | 1.0 | 0.00 | 0.07 | 0.00 | 100 | 1015.9 |
| 20260904101745 | 76 | 143 | 0.0 | 0.0 | 0.00 | 0.07 | 0.00 | 100 | 1015.8 |
| 20260904101346 | 76 | 143 | 0.0 | 0.0 | 0.00 | 0.07 | 0.00 | 100 | 1015.7 |
| 20260904101245 | 76 | 143 | 0.0 | 0.0 | 0.00 | 0.07 | 0.00 | 100 | 1015.7 |
| 20260904100943 | 76 | 143 | 0.0 | 0.0 | 0.00 | 0.07 | 0.00 | 100 | 1015.7 |
| 20260904100745 | 76 | 143 | 0.0 | 0.0 | 0.00 | 0.07 | 0.00 | 100 | 1015.7 |
| 20260904100443 | 76 | 143 | 0.0 | 0.0 | 0.00 | 0.07 | 0.00 | 100 | 1015.5 |
| 20260904100245 | 76 | 143 | 0.0 | 0.0 | 0.00 | 0.07 | 0.00 | 100 | 1015.5 |
| 20260904100031 | 76 | 143 | 0.0 | 0.0 | 0.00 | 0.07 | 0.00 | 100 | 1015.5 |
| 20260904095745 | 76 | 143 | 0.0 | 0.0 | 0.00 | 0.07 | 0.00 | 100 | 1015.5 |
| 20260904095521 | 76 | 143 | 0.0 | 0.0 | 0.00 | 0.07 | 0.00 | 100 | 1015.4 |
| 20260904095245 | 76 | 143 | 0.0 | 0.0 | 0.00 | 0.07 | 0.00 | 100 | 1015.4 |
| 20260904094745 | 76 | 143 | 0.0 | 0.0 | 0.00 | 0.07 | 0.00 | 100 | 1015.2 |
| 20260904094245 | 76 | 143 | 0.0 | 0.0 | 0.00 | 0.07 | 0.00 | 100 | 1015.3 |
| 20260904093745 | 76 | 143 | 0.0 | 0.0 | 0.00 | 0.07 | 0.00 | 100 | 1015.3 |
| 20260904093245 | 76 | 143 | 0.0 | 0.0 | 0.00 | 0.07 | 0.00 | 100 | 1015.2 |
| 20260904092955 | 76 | 143 | 0.0 | 0.0 | 0.00 | 0.07 | 0.00 | 100 | 1015.1 |
| 20260904092745 | 76 | 143 | 0.0 | 0.0 | 0.00 | 0.07 | 0.00 | 100 | 1015.1 |
| 20260904092545 | 76 | 143 | 0.0 | 0.0 | 0.00 | 0.07 | 0.00 | 100 | 1015.2 |
| 20260904092245 | 76 | 143 | 0.0 | 0.0 | 0.00 | 0.07 | 0.00 | 100 | 1015.2 |
| 20260904091745 | 76 | 143 | 0.0 | 0.0 | 0.00 | 0.07 | 0.00 | 100 | 1015.2 |
| 20260904091245 | 76 | 143 | 0.0 | 0.0 | 0.00 | 0.07 | 0.00 | 100 | 1015.2 |
| 20260904090942 | 76 | 143 | 0.0 | 0.0 | 0.00 | 0.07 | 0.00 | 100 | 1015.2 |
| 20260904090745 | 76 | 143 | 0.0 | 0.0 | 0.00 | 0.07 | 0.00 | 100 | 1015.2 |
| 20260904090525 | 76 | 143 | 0.0 | 0.0 | 0.00 | 0.07 | 0.00 | 100 | 1015.2 |
| 20260904090245 | 76 | 143 | 0.0 | 0.0 | 0.00 | 0.07 | 0.00 | 100 | 1015.2 |
| 20260904085745 | 76 | 143 | 0.0 | 0.0 | 0.00 | 0.07 | 0.00 | 100 | 1015.1 |
| 20260904085245 | 76 | 143 | 0.0 | 0.0 | 0.00 | 0.07 | 0.00 | 100 | 1015.1 |
| 20260904084745 | 77 | 143 | 0.0 | 0.0 | 0.00 | 0.07 | 0.00 | 100 | 1015.1 |
| 20260904084245 | 76 | 143 | 0.0 | 0.0 | 0.00 | 0.07 | 0.00 | 100 | 1015.2 |
| 20260904083745 | 76 | 143 | 0.0 | 0.0 | 0.00 | 0.07 | 0.00 | 100 | 1015.2 |
| 20260904083245 | 77 | 143 | 0.0 | 0.0 | 0.00 | 0.07 | 0.00 | 100 | 1015.3 |
| 20260904082745 | 77 | 143 | 0.0 | 0.0 | 0.00 | 0.07 | 0.00 | 100 | 1015.2 |
| 20260904082245 | 76 | 143 | 0.0 | 0.0 | 0.00 | 0.07 | 0.00 | 100 | 1015.4 |
| 20260904081954 | 76 | 143 | 0.0 | 0.0 | 0.00 | 0.07 | 0.00 | 100 | 1015.3 |
| 20260904081745 | 76 | 143 | 0.0 | 0.0 | 0.00 | 0.07 | 0.00 | 100 | 1015.3 |
| 20260904081245 | 77 | 143 | 0.0 | 0.0 | 0.00 | 0.07 | 0.00 | 100 | 1015.3 |
| 20260904080745 | 77 | 143 | 0.0 | 0.0 | 0.00 | 0.07 | 0.00 | 100 | 1015.2 |
| 20260904080534 | 77 | 143 | 0.0 | 0.0 | 0.00 | 0.07 | 0.00 | 100 | 1015.3 |
| 20260904080246 | 77 | 143 | 0.0 | 0.0 | 0.00 | 0.07 | 0.00 | 100 | 1015.3 |
| 20260904080021 | 77 | 143 | 0.0 | 0.0 | 0.00 | 0.07 | 0.00 | 100 | 1015.3 |
| 20260904075746 | 77 | 143 | 0.0 | 0.0 | 0.00 | 0.07 | 0.00 | 100 | 1015.3 |
| 20260904075245 | 77 | 143 | 0.0 | 0.0 | 0.00 | 0.07 | 0.00 | 100 | 1015.3 |
| 20260904075145 | 77 | 143 | 0.0 | 0.0 | 0.00 | 0.07 | 0.00 | 100 | 1015.2 |
| 20260904074746 | 77 | 143 | 0.0 | 0.0 | 0.00 | 0.07 | 0.00 | 100 | 1015.2 |
| 20260904074532 | 77 | 143 | 0.0 | 0.0 | 0.00 | 0.07 | 0.00 | 100 | 1015.2 |
| 20260904074246 | 77 | 143 | 0.0 | 0.0 | 0.00 | 0.07 | 0.00 | 100 | 1015.2 |
| 20260904074008 | 77 | 143 | 0.0 | 0.0 | 0.00 | 0.07 | 0.00 | 100 | 1015.1 |
| 20260904073746 | 77 | 143 | 0.0 | 0.0 | 0.00 | 0.07 | 0.00 | 100 | 1015.1 |
| 20260904073449 | 77 | 143 | 0.0 | 0.0 | 0.00 | 0.07 | 0.00 | 100 | 1015.1 |
| 20260904073246 | 77 | 143 | 0.0 | 0.0 | 0.00 | 0.07 | 0.00 | 100 | 1015.1 |
| 20260904073032 | 77 | 143 | 0.0 | 0.0 | 0.00 | 0.07 | 0.00 | 100 | 1015.2 |
| 20260904072746 | 77 | 143 | 0.0 | 0.0 | 0.00 | 0.07 | 0.00 | 100 | 1015.2 |
| 20260904072550 | 77 | 143 | 0.0 | 0.0 | 0.00 | 0.07 | 0.00 | 100 | 1015.2 |
| 20260904072246 | 77 | 143 | 0.0 | 0.0 | 0.00 | 0.07 | 0.00 | 100 | 1015.2 |
| 20260904072016 | 77 | 143 | 0.0 | 0.0 | 0.00 | 0.07 | 0.00 | 100 | 1015.1 |
| 20260904071746 | 77 | 143 | 0.0 | 0.0 | 0.00 | 0.07 | 0.00 | 100 | 1015.1 |
| 20260904071246 | 77 | 143 | 0.0 | 0.0 | 0.00 | 0.07 | 0.00 | 100 | 1015.1 |
| 20260904071001 | 77 | 143 | 0.0 | 0.0 | 0.00 | 0.07 | 0.00 | 100 | 1015.2 |
| 20260904070746 | 77 | 143 | 0.0 | 0.0 | 0.00 | 0.07 | 0.00 | 100 | 1015.2 |
| 20260904070531 | 77 | 143 | 0.0 | 0.0 | 0.00 | 0.07 | 0.00 | 100 | 1015.3 |
| 20260904070246 | 77 | 143 | 0.0 | 0.0 | 0.00 | 0.07 | 0.00 | 100 | 1015.3 |
| 20260904065953 | 77 | 143 | 0.0 | 0.0 | 0.00 | 0.07 | 0.00 | 100 | 1015.3 |
| 20260904065746 | 77 | 143 | 0.0 | 0.0 | 0.00 | 0.07 | 0.00 | 100 | 1015.3 |
| 20260904065615 | 77 | 143 | 0.0 | 0.0 | 0.00 | 0.07 | 0.00 | 100 | 1015.4 |
| 20260904065246 | 77 | 143 | 0.0 | 0.0 | 0.00 | 0.07 | 0.00 | 100 | 1015.4 |
| 20260904065031 | 77 | 143 | 0.0 | 0.0 | 0.00 | 0.07 | 0.00 | 100 | 1015.4 |
| 20260904064746 | 77 | 143 | 0.0 | 0.0 | 0.00 | 0.07 | 0.00 | 100 | 1015.4 |
| 20260904064445 | 77 | 143 | 0.0 | 0.0 | 0.00 | 0.07 | 0.00 | 100 | 1015.2 |
| 20260904064246 | 77 | 143 | 0.0 | 0.0 | 0.00 | 0.07 | 0.00 | 100 | 1015.2 |
| 20260904063746 | 77 | 143 | 0.0 | 0.0 | 0.00 | 0.07 | 0.00 | 100 | 1015.3 |
| 20260904063246 | 77 | 143 | 0.0 | 0.0 | 0.00 | 0.07 | 0.00 | 100 | 1015.4 |
| 20260904063024 | 77 | 143 | 0.0 | 0.0 | 0.00 | 0.07 | 0.00 | 100 | 1015.5 |
| 20260904062746 | 77 | 143 | 0.0 | 0.0 | 0.00 | 0.07 | 0.00 | 100 | 1015.5 |
| 20260904062613 | 77 | 143 | 0.0 | 0.0 | 0.00 | 0.07 | 0.00 | 100 | 1015.5 |
| 20260904062246 | 77 | 143 | 0.0 | 0.0 | 0.00 | 0.07 | 0.00 | 100 | 1015.5 |
| 20260904061746 | 77 | 143 | 0.0 | 0.0 | 0.00 | 0.07 | 0.00 | 100 | 1015.4 |
| 20260904061246 | 77 | 143 | 0.0 | 0.0 | 0.00 | 0.07 | 0.00 | 100 | 1015.5 |
| 20260904061032 | 77 | 143 | 0.0 | 0.0 | 0.00 | 0.07 | 0.00 | 100 | 1015.6 |
| 20260904060746 | 77 | 143 | 0.0 | 0.0 | 0.00 | 0.07 | 0.00 | 100 | 1015.6 |
| 20260904060246 | 77 | 143 | 0.0 | 0.0 | 0.00 | 0.07 | 0.00 | 100 | 1015.6 |
| 20260904055746 | 77 | 143 | 0.0 | 0.0 | 0.00 | 0.07 | 0.00 | 100 | 1015.6 |
| 20260904055246 | 77 | 143 | 0.0 | 0.0 | 0.00 | 0.07 | 0.00 | 100 | 1015.7 |
| 20260904054746 | 77 | 143 | 0.0 | 0.0 | 0.00 | 0.07 | 0.00 | 100 | 1015.6 |
| 20260904054246 | 77 | 143 | 0.0 | 1.0 | 0.00 | 0.07 | 0.00 | 100 | 1015.7 |
| 20260904053746 | 77 | 144 | 0.0 | 2.0 | 0.00 | 0.07 | 0.00 | 100 | 1015.8 |
| 20260904053246 | 77 | 105 | 0.0 | 0.0 | 0.00 | 0.07 | 0.00 | 100 | 1015.8 |
| 20260904053108 | 77 | 105 | 0.0 | 1.0 | 0.00 | 0.07 | 0.00 | 100 | 1015.8 |
| 20260904052746 | 77 | 105 | 0.0 | 1.0 | 0.00 | 0.07 | 0.00 | 100 | 1015.8 |
| 20260904052246 | 77 | 105 | 0.0 | 1.0 | 0.00 | 0.07 | 0.00 | 100 | 1015.9 |
| 20260904052022 | 78 | 163 | 0.0 | 0.0 | 0.00 | 0.07 | 0.00 | 100 | 1016.0 |
| 20260904051746 | 78 | 163 | 0.0 | 0.0 | 0.00 | 0.07 | 0.00 | 100 | 1016.0 |
| 20260904051511 | 77 | 163 | 0.0 | 0.0 | 0.00 | 0.07 | 0.00 | 100 | 1016.1 |
| 20260904051246 | 77 | 163 | 0.0 | 0.0 | 0.00 | 0.07 | 0.00 | 100 | 1016.1 |
| 20260904051101 | 78 | 163 | 0.0 | 0.0 | 0.00 | 0.07 | 0.00 | 100 | 1016.1 |
| 20260904050746 | 78 | 163 | 0.0 | 0.0 | 0.00 | 0.07 | 0.00 | 100 | 1016.1 |
| 20260904050530 | 78 | 163 | 0.0 | 0.0 | 0.00 | 0.07 | 0.00 | 100 | 1016.2 |
| 20260904050246 | 78 | 163 | 0.0 | 0.0 | 0.00 | 0.07 | 0.00 | 100 | 1016.2 |
| 20260904045746 | 78 | 163 | 0.0 | 0.0 | 0.00 | 0.07 | 0.00 | 100 | 1016.2 |
| 20260904045246 | 78 | 163 | 0.0 | 0.0 | 0.00 | 0.07 | 0.07 | 100 | 1016.1 |
| 20260904044746 | 78 | 163 | 0.0 | 0.0 | 0.00 | 0.07 | 0.07 | 100 | 1016.1 |
| 20260904044556 | 78 | 163 | 0.0 | 0.0 | 0.00 | 0.07 | 0.07 | 100 | 1016.2 |
| 20260904044246 | 78 | 163 | 0.0 | 0.0 | 0.00 | 0.07 | 0.07 | 100 | 1016.2 |
| 20260904043746 | 78 | 163 | 0.0 | 0.0 | 0.00 | 0.07 | 0.07 | 100 | 1016.2 |
| 20260904043532 | 78 | 163 | 0.0 | 0.0 | 0.00 | 0.07 | 0.07 | 100 | 1016.3 |
| 20260904043246 | 78 | 163 | 0.0 | 0.0 | 0.00 | 0.07 | 0.07 | 100 | 1016.3 |
| 20260904043036 | 78 | 163 | 0.0 | 0.0 | 0.00 | 0.07 | 0.07 | 100 | 1016.3 |
| 20260904042746 | 78 | 163 | 0.0 | 0.0 | 0.00 | 0.07 | 0.07 | 100 | 1016.3 |
| 20260904042246 | 78 | 163 | 0.0 | 0.0 | 0.00 | 0.07 | 0.07 | 100 | 1016.4 |
| 20260904041746 | 78 | 163 | 0.0 | 0.0 | 0.00 | 0.07 | 0.07 | 100 | 1016.4 |
| 20260904041246 | 78 | 163 | 0.0 | 0.0 | 0.00 | 0.07 | 0.07 | 100 | 1016.3 |
| 20260904040746 | 78 | 163 | 0.0 | 0.0 | 0.00 | 0.07 | 0.07 | 100 | 1016.3 |
| 20260904040246 | 78 | 163 | 0.0 | 0.0 | 0.00 | 0.08 | 0.07 | 100 | 1016.3 |
| 20260904040002 | 78 | 163 | 0.0 | 0.0 | 0.00 | 0.08 | 0.07 | 100 | 1016.3 |
| 20260904035746 | 78 | 163 | 0.0 | 0.0 | 0.00 | 0.08 | 0.07 | 100 | 1016.3 |
| 20260904035247 | 78 | 163 | 0.0 | 0.0 | 0.00 | 0.08 | 0.07 | 100 | 1016.3 |
| 20260904035005 | 78 | 163 | 0.0 | 0.0 | 0.00 | 0.08 | 0.07 | 100 | 1016.3 |
| 20260904034747 | 78 | 163 | 0.0 | 0.0 | 0.00 | 0.08 | 0.07 | 100 | 1016.3 |
| 20260904034555 | 78 | 163 | 0.0 | 0.0 | 0.00 | 0.08 | 0.07 | 100 | 1016.4 |
| 20260904034247 | 78 | 163 | 0.0 | 0.0 | 0.00 | 0.08 | 0.07 | 100 | 1016.4 |
| 20260904033747 | 78 | 163 | 0.0 | 0.0 | 0.00 | 0.08 | 0.07 | 100 | 1016.4 |
| 20260904033247 | 78 | 163 | 0.0 | 0.0 | 0.00 | 0.08 | 0.07 | 100 | 1016.4 |
| 20260904033002 | 78 | 163 | 0.0 | 0.0 | 0.00 | 0.08 | 0.07 | 100 | 1016.4 |
| 20260904032747 | 78 | 163 | 0.0 | 0.0 | 0.00 | 0.08 | 0.07 | 100 | 1016.4 |
| 20260904032247 | 78 | 163 | 0.0 | 0.0 | 0.00 | 0.08 | 0.07 | 100 | 1016.3 |
| 20260904032012 | 78 | 163 | 0.0 | 0.0 | 0.00 | 0.08 | 0.07 | 100 | 1016.3 |
| 20260904031747 | 78 | 163 | 0.0 | 0.0 | 0.00 | 0.08 | 0.07 | 100 | 1016.3 |
| 20260904031456 | 78 | 163 | 0.0 | 0.0 | 0.00 | 0.08 | 0.07 | 100 | 1016.3 |
| 20260904031247 | 78 | 163 | 0.0 | 0.0 | 0.00 | 0.08 | 0.07 | 100 | 1016.3 |
| 20260904030747 | 78 | 163 | 0.0 | 0.0 | 0.00 | 0.08 | 0.07 | 100 | 1016.2 |
| 20260904030247 | 78 | 163 | 0.0 | 0.0 | 0.00 | 0.11 | 0.07 | 100 | 1016.3 |
| 20260904025747 | 78 | 163 | 0.0 | 0.0 | 0.00 | 0.11 | 0.07 | 100 | 1016.2 |
| 20260904025425 | 78 | 163 | 0.0 | 2.0 | 0.00 | 0.11 | 0.07 | 100 | 1016.1 |
| 20260904025247 | 78 | 163 | 0.0 | 2.0 | 0.00 | 0.11 | 0.07 | 100 | 1016.1 |
| 20260904025034 | 78 | 163 | 0.0 | 3.0 | 0.00 | 0.11 | 0.07 | 100 | 1016.0 |
| 20260904024747 | 78 | 163 | 0.0 | 3.0 | 0.00 | 0.11 | 0.07 | 100 | 1016.0 |
| 20260904024247 | 78 | 118 | 0.0 | 3.0 | 0.00 | 0.11 | 0.07 | 100 | 1016.0 |
| 20260904023747 | 78 | 150 | 2.0 | 4.0 | 0.00 | 0.11 | 0.07 | 100 | 1016.0 |
| 20260904023247 | 78 | 177 | 0.0 | 0.0 | 0.00 | 0.11 | 0.07 | 100 | 1016.0 |